Weather History for GMAD - April, 2013

Change the Weather History Date:

Wednesday, April 17, 2013

  Actual Average Record
Temperature  
Mean Temperature 73 °F -  
Max Temperature 87 °F - - ()
Min Temperature 59 °F - - ()
Cooling Degree Days 8    
Growing Degree Days 23 (Base 50)    
Moisture  
Dew Point 60 °F    
Average Humidity 82    
Maximum Humidity 100    
Minimum Humidity 34    
Precipitation  
Precipitation 0.00 in - - ()
Sea Level Pressure  
Sea Level Pressure 29.95 in    
Wind  
Wind Speed 2 mph ()    
Max Wind Speed 15 mph    
Max Gust Speed -    
Visibility 2.9 miles    
Events Fog    
T = Trace of Precipitation, MM = Missing Value Source: Averaged Metar Reports

Daily Weather History Graph

Daily Weather History Graph

Search for Another Location

Airport or City:

Trip Planner

Search our weather history database for the weather conditions in past years. The results will help you decide how hot, cold, wet, or windy it might be!

Date:

Astronomy

Apr. 17, 2013 Rise Set
Actual Time 6:08 AM WET 7:06 PM WET
Civil Twilight 5:43 AM WET 7:31 PM WET
Nautical Twilight 5:14 AM WET 8:00 PM WET
Astronomical Twilight 4:44 AM WET 8:30 PM WET
Moon 11:18 AM WET (4/17) 12:26 AM WET (4/17)
Length of Visible Light 13h 47m
Length of Day
12h 58m
Waxing Crescent, 40% of the Moon is Illuminated
Apr 17
Waxing Crescent
Apr 18
First Quarter
Apr 25
Full
May 2
Last Quarter
May 10
New

Hourly Weather History & Observations

Time (WET) Temp. Heat Index Dew Point Humidity Pressure Visibility Wind Dir Wind Speed Gust Speed Precip Events Conditions
12:00 AM 62 °F - 59 °F 87% 29.96 in 4 mi Calm Calm - -   Mostly Cloudy
12:00 AM 62.6 °F - 59.0 °F 88% 29.95 in 3.7 mi Calm Calm - N/A   Mostly Cloudy
1:00 AM 60.8 °F - 57.2 °F 88% 29.95 in 3.7 mi Calm Calm - N/A   Mostly Cloudy
2:00 AM 59.0 °F - 57.2 °F 94% 29.92 in 3.7 mi Calm Calm - N/A   Mostly Cloudy
2:54 AM 60.8 °F - 59.0 °F 94% 29.92 in 0.4 mi Calm Calm - N/A Fog Fog
3:00 AM 61 °F - 59 °F 89% 29.94 in 0 mi Calm Calm - -  
3:00 AM 60.8 °F - 59.0 °F 94% 29.92 in 0.4 mi Calm Calm - N/A Fog Fog
4:00 AM 60.8 °F - 59.0 °F 94% 29.92 in 0.1 mi Calm Calm - N/A Fog Fog
5:00 AM 60.8 °F - 59.0 °F 94% 29.92 in 0.1 mi Calm Calm - N/A Fog Fog
6:00 AM 61 °F - 59 °F 90% 29.96 in 0 mi Calm Calm - - Fog Partial Fog
6:00 AM 60.8 °F - 59.0 °F 94% 29.95 in 0.1 mi Calm Calm - N/A Fog Fog
7:00 AM 60.8 °F - 59.0 °F 94% 29.95 in 0.1 mi Calm Calm - N/A Fog Fog
8:00 AM 60.8 °F - 60.8 °F 100% 29.98 in 0.1 mi Calm Calm - N/A Fog Fog
8:20 AM 60.8 °F - 60.8 °F 100% 29.98 in 0.7 mi Calm Calm - N/A   Overcast
9:00 AM 62 °F - 60 °F 91% 29.98 in 1 mi Calm Calm - -   Mist
9:00 AM 60.8 °F - 60.8 °F 100% 29.98 in 1.2 mi Calm Calm - N/A   Overcast
9:15 AM 64.4 °F - 62.6 °F 94% 29.95 in 3.1 mi NE 3.5 mph - N/A   Mostly Cloudy
10:00 AM 69.8 °F - 62.6 °F 78% 29.95 in 3.1 mi Calm Calm - N/A   Scattered Clouds
10:40 AM 80.6 °F 81.5 °F 60.8 °F 51% 29.95 in 3.7 mi Calm Calm - N/A   Mostly Cloudy
11:00 AM 82.4 °F 82.9 °F 60.8 °F 48% 29.95 in 3.7 mi ENE 5.8 mph - N/A   Mostly Cloudy
12:00 PM 87 °F - 63 °F 34% 29.94 in 4 mi WNW 8.1 mph - -   Partly Cloudy
12:00 PM 86.0 °F 86.6 °F 62.6 °F 45% 29.95 in 3.7 mi WNW 9.2 mph - N/A   Partly Cloudy
2:00 PM 77.0 °F - 62.6 °F 61% 29.92 in 3.7 mi West 15.0 mph - N/A   Partly Cloudy
3:00 PM 69 °F - 61 °F 68% 29.93 in 6 mi WSW 11.5 mph - -   Scattered Clouds
3:00 PM 68.0 °F - 60.8 °F 78% 29.92 in 6.2 mi WSW 11.5 mph - N/A   Mostly Cloudy
4:00 PM 69.8 °F - 60.8 °F 73% 29.92 in 6.2 mi WSW 10.4 mph - N/A   Mostly Cloudy
6:00 PM 67 °F - 60 °F 73% 29.94 in 6 mi WSW 6.9 mph - -   Scattered Clouds
6:00 PM 66.2 °F - 60.8 °F 83% 29.95 in 6.2 mi WSW 6.9 mph - N/A   Mostly Cloudy
7:00 PM 66.2 °F - 60.8 °F 83% 29.95 in 3.7 mi West 8.1 mph - N/A   Mostly Cloudy
8:00 PM 64.4 °F - 60.8 °F 88% 29.95 in 3.7 mi Calm Calm - N/A   Mostly Cloudy
10:00 PM 64.4 °F - 60.8 °F 88% 29.98 in 3.7 mi ENE 6.9 mph - N/A   Scattered Clouds
11:00 PM 64.4 °F - 60.8 °F 88% 29.98 in 6.2 mi ENE 5.8 mph - N/A   Scattered Clouds